{"data":{"norad_id":68242,"epoch":"2026-09-19T22:55:05.971008Z","epoch_age_seconds":99267,"freshness":"FRESH","line1":"1 68242U 26054L   26262.95493022  .00022686  00000+0  68131-3 0  9996","line2":"2 68242  53.1564 112.5269 0003425  90.0710 270.0685 15.34360782 28765","mean_motion":15.34360782,"eccentricity":0.0003425,"inclination_deg":53.1564,"raan_deg":112.5269,"arg_perigee_deg":90.071,"mean_anomaly_deg":270.0685,"bstar":0.00068131,"rev_number":2876,"period_min":93.850156814031,"perigee_km":460.47677914437,"apogee_km":465.16283455706,"semimajor_km":6840.9568068507,"source":"CELESTRAK","updated_at":"2026-09-20T09:00:43.841189Z"}}